Погода в Сеннаре

Судан     13°32′41″N   33°36′34″E
темп.,
°C
ветер,
м/с
пор.,
м/с
влажн.,
%
обл.,
%
осадки,
мм/ч
давл.,
гПа
погр.,
м
12 августа, пт
пт1223:00+23ю598675 0.0 1011525
02:00+23юз61087100 0.0 1010504
05:00+23ю5108996 0.0 1011513
08:00+25ююз7107644 0.0 1011624
11:00+28юз6762100 0.0 10111242
14:00+29зюз5658100 0.0 10091182
17:00+28з236670 0.0 1008138
20:00+27ю357132 0.0 100991
13 августа, сб
сб1323:00+26ююз4977100 0.1 1010378
02:00+24ююз6985100 2.5 1009392
05:00+23ю51092100 5.3 1010468
08:00+24ююз6886100 6.4 1011473
11:00+25ююз5680100 0.0 1011672
14:00+25юз6676100 0.3 1009748
17:00+26юз667398 0.0 1009799
20:00+23ююз5786100 0.0 1011460
14 августа, вс
вс1423:00+23ю5787100 0.1 1012467
02:00+22ю5890100 0.5 1011415
05:00+22ю61090100 0.1 1010458
08:00+23ю71082100 0.1 1012581
11:00+27ююз6666100 0.0 10121190
14:00+27юз6665100 0.2 10101081
17:00+26юз5669100 0.0 1009741
20:00+25ююз5876100 0.0 1010534
15 августа, пн
пн1523:00+24ююз6983100 0.0 1010465
02:00+23ю4884100 0.0 1010464
05:00+23ю478799 0.0 1011410
08:00+25ююз68765 0.0 1011624
11:00+29ююз785862 0.0 10111453
14:00+29ююз6658100 0.2 10091340
17:00+28ю566290 0.3 1009858
20:00+25ю4678100 1.5 1011337
16 августа, вт
вт1623:00+24ююв5782100 1.9 1012294
02:00+23ююв598661 2.1 1011407
05:00+23ю4786100 0.0 1010312
08:00+24ю6779100 0.0 1011428
11:00+28ююз445961 0.0 1011998
14:00+30ююз325131 0.0 10081578
17:00+30ююз435299 0.1 1008922
20:00+27юз566698 0.1 1009293